Location: Brudzew
(52.0976°N, 18.6049°E)
Time: 22:17:50
(UTC+02:00)

ISS - Pass Details

Date: 01 October 2018
Orbit: 403 x 408 km, 51.6° (Epoch: 17 October)

Event Time Altitude Azimuth Distance (km) Brightness Sun altitude
Rises 19:02:47 0° 257° (WSW) 2,336 1.8 -6.9°
Reaches altitude 10° 19:04:52 10° 256° (WSW) 1,476 0.4 -7.2°
Maximum altitude 19:08:10 76° 171° (S) 428 -3.8 -7.7°
Enters shadow 19:11:19 11° 85° (E) 1,412 -1.7 -8.2°
